Walla Walla, WA
on Saturday, November 3, 2012

Saturday
Previous Day Next Day
Daily Summary
 ActualAverage (KPDT)Record (KPDT)
Temperature
Mean Temperature °F 46°F  
Max Temperature 64°F 55°F 76°F (1975)
Min Temperature 48°F 36°F 10°F (1935)
Degree Days
Heating Degree Days 9 19  
Month to date heating degree days 57  
Since 1 July heating degree days 599  
Cooling Degree Days 0 0  
Month to date cooling degree days 0  
Year to date cooling degree days 636  
Growing Degree Days6 (Base °F )  
Moisture
Dew Point 48°F   
Average Humidity 78    
Maximum Humidity 96    
Minimum Humidity 60    
Precipitation
Precipitation 0.01 in 0.05 in 0.43 in (1919)
Month to date precipitation 0.14  
Year to date precipitation 9.81  
Snow
Snow 0.00 in 0.00 in T in (2003)
Month to date snowfall 0.0  
Year to date snowfall 7.8  
Since 1 July snowfall 0.1  
Snow Depth in   
Wind
Wind Speed 5 mph   
Max Wind Speed 9 mph   
Max Gust Speed mph   
Visibility 8 miles   
Events Rain   

Key: T is trace of precipitation, MM is missing value
Source: NWS Daily Summary
Time(PDT)TemperatureDew PointHumidity Pressure Visibility Wind DirectionWind SpeedGust SpeedPrecipitationEvents Conditions
12:53 AM 48.9°F 46.0°F 90% 30.03 in 6.0 miles SSE 4.6 mph - N/A   Scattered Clouds
1:53 AM 48.0°F 46.0°F 93% 30.04 in 5.0 miles South 6.9 mph - N/A   Overcast
2:53 AM 48.0°F 46.0°F 93% 30.06 in 5.0 miles South 5.8 mph - N/A   Overcast
3:53 AM 48.0°F 46.0°F 93% 30.04 in 6.0 miles South 4.6 mph - N/A   Overcast
4:53 AM 48.9°F 46.0°F 90% 30.05 in 6.0 miles Calm Calm - N/A   Overcast
5:53 AM 50.0°F 46.0°F 86% 30.05 in 7.0 miles Calm Calm - N/A   Overcast
6:53 AM 48.0°F 46.9°F 96% 30.06 in 4.0 miles Calm Calm - N/A   Overcast
7:53 AM 48.9°F 46.9°F 93% 30.09 in 5.0 miles Calm Calm - 0.01 in Rain Light Rain
8:53 AM 51.1°F 48.0°F 89% 30.10 in 5.0 miles SSE 3.5 mph - 0.00 in   Overcast
9:53 AM 53.1°F 50.0°F 89% 30.11 in 8.0 miles SSE 4.6 mph - 0.00 in   Overcast
10:53 AM 57.9°F 48.0°F 70% 30.11 in 10.0 miles SSE 5.8 mph - N/A   Overcast
11:53 AM 63.0°F 50.0°F 63% 30.10 in 10.0 miles South 8.1 mph - N/A   Mostly Cloudy
12:53 PM 64.0°F 50.0°F 60% 30.09 in 10.0 miles SW 6.9 mph - N/A   Overcast
1:53 PM 62.1°F 51.1°F 67% 30.10 in 10.0 miles West 3.5 mph - 0.00 in Rain Light Rain
2:53 PM 62.1°F 48.9°F 62% 30.10 in 10.0 miles SSW 8.1 mph - 0.00 in   Overcast
3:53 PM 60.1°F 50.0°F 69% 30.13 in 10.0 miles SSW 6.9 mph - N/A   Overcast
4:53 PM 60.1°F 48.9°F 67% 30.14 in 10.0 miles South 9.2 mph - N/A   Overcast
5:53 PM 57.9°F 48.0°F 70% 30.15 in 10.0 miles South 9.2 mph - N/A   Scattered Clouds
6:53 PM 57.0°F 48.0°F 72% 30.17 in 10.0 miles South 8.1 mph - N/A   Partly Cloudy
7:53 PM 57.0°F 48.0°F 72% 30.17 in 10.0 miles South 6.9 mph - N/A   Partly Cloudy
8:53 PM 54.0°F 48.0°F 80% 30.18 in 10.0 miles SW 4.6 mph - N/A   Clear
9:53 PM 57.0°F 46.9°F 69% 30.18 in 10.0 miles South 8.1 mph - N/A   Clear
10:53 PM 55.9°F 46.9°F 72% 30.19 in 10.0 miles South 5.8 mph - N/A   Scattered Clouds
11:53 PM 55.0°F 48.0°F 77% 30.19 in 10.0 miles Calm Calm - N/A   Overcast
Moon Phase
Nov. 03 Nov. 06 Nov. 13 Nov. 20 Nov. 28
Sunrise:07:37 AM (PDT) Moon Rise:09:15 PM (PDT)11/3
Sunset:05:35 PM (PDT) Moon Set:11:50 AM (PDT)11/3

Copyright © 2014 The Weather Underground, Inc.